| time (UTC) | temp F | wind direction | speed MPH | gust MPH | rain 1hr in | rain 24hr in | rain mn in | humidity % | barometer mb |
| 20260504205002 | 68 | 251 | 2.0 | 3.0 | 0.00 | 0.00 | 0.00 | 33 | 1007.7 |
| 20260504204544 | 68 | 250 | 2.0 | 2.0 | 0.00 | 0.00 | 0.00 | 34 | 1036.3 |
| 20260504204503 | 68 | 176 | 4.0 | 5.0 | 0.00 | 0.00 | 0.00 | 34 | 1007.5 |
| 20260504204043 | 69 | 277 | 3.0 | 3.0 | 0.00 | 0.00 | 0.00 | 33 | 1036.1 |
| 20260504203541 | 70 | 162 | 2.0 | 2.0 | 0.00 | 0.00 | 0.00 | 32 | 1036.4 |
| 20260504203503 | 70 | 162 | 3.0 | 3.0 | 0.00 | 0.00 | 0.00 | 32 | 1007.7 |
| 20260504203038 | 71 | 157 | 2.0 | 3.0 | 0.00 | 0.00 | 0.00 | 32 | 1036.1 |
| 20260504203003 | 71 | 157 | 3.0 | 4.0 | 0.00 | 0.00 | 0.00 | 32 | 1007.4 |
| 20260504202533 | 70 | 261 | 4.0 | 6.0 | 0.00 | 0.00 | 0.00 | 31 | 1036.2 |
| 20260504202502 | 70 | 261 | 5.0 | 6.0 | 0.00 | 0.00 | 0.00 | 31 | 1007.5 |
| 20260504202031 | 70 | 208 | 5.0 | 6.0 | 0.00 | 0.00 | 0.00 | 31 | 1036.4 |
| 20260504202003 | 70 | 208 | 5.0 | 6.0 | 0.00 | 0.00 | 0.00 | 31 | 1007.7 |
| 20260504201527 | 69 | 224 | 2.0 | 2.0 | 0.00 | 0.00 | 0.00 | 32 | 1036.2 |
| 20260504201502 | 69 | 224 | 2.0 | 3.0 | 0.00 | 0.00 | 0.00 | 32 | 1007.5 |
| 20260504201026 | 70 | 236 | 3.0 | 5.0 | 0.00 | 0.00 | 0.00 | 33 | 1036.5 |
| 20260504201004 | 70 | 236 | 4.0 | 5.0 | 0.00 | 0.00 | 0.00 | 33 | 1007.8 |
| 20260504200521 | 71 | 268 | 2.0 | 2.0 | 0.00 | 0.00 | 0.00 | 31 | 1036.5 |
| 20260504200502 | 71 | 268 | 2.0 | 3.0 | 0.00 | 0.00 | 0.00 | 31 | 1007.8 |
| 20260504200018 | 71 | 259 | 2.0 | 3.0 | 0.00 | 0.00 | 0.00 | 32 | 1036.5 |
| 20260504200002 | 71 | 259 | 2.0 | 4.0 | 0.00 | 0.00 | 0.00 | 32 | 1007.8 |
| 20260504195514 | 71 | 254 | 1.0 | 2.0 | 0.00 | 0.00 | 0.00 | 31 | 1036.3 |
| 20260504195503 | 71 | 254 | 2.0 | 3.0 | 0.00 | 0.00 | 0.00 | 31 | 1007.6 |
| 20260504195011 | 71 | 224 | 3.0 | 3.0 | 0.00 | 0.00 | 0.00 | 31 | 1036.3 |
| 20260504195003 | 71 | 224 | 3.0 | 4.0 | 0.00 | 0.00 | 0.00 | 31 | 1007.6 |
| 20260504194508 | 70 | 207 | 1.0 | 1.0 | 0.00 | 0.00 | 0.00 | 32 | 1036.4 |
| 20260504194502 | 70 | 207 | 2.0 | 2.0 | 0.00 | 0.00 | 0.00 | 32 | 1007.7 |
| 20260504194003 | 68 | 203 | 2.0 | 2.0 | 0.00 | 0.00 | 0.00 | 33 | 1036.5 |
| 20260504193503 | 70 | 352 | 2.0 | 4.0 | 0.00 | 0.00 | 0.00 | 32 | 1007.8 |
| 20260504193500 | 70 | 352 | 2.0 | 3.0 | 0.00 | 0.00 | 0.00 | 32 | 1036.5 |
| 20260504193004 | 71 | 204 | 3.0 | 5.0 | 0.00 | 0.00 | 0.00 | 32 | 1007.8 |
| 20260504192959 | 71 | 204 | 3.0 | 5.0 | 0.00 | 0.00 | 0.00 | 32 | 1036.5 |
| 20260504192502 | 71 | 211 | 3.0 | 3.0 | 0.00 | 0.00 | 0.00 | 31 | 1007.8 |
| 20260504192456 | 71 | 211 | 2.0 | 2.0 | 0.00 | 0.00 | 0.00 | 31 | 1036.5 |
| 20260504192003 | 71 | 312 | 4.0 | 6.0 | 0.00 | 0.00 | 0.00 | 31 | 1007.7 |
| 20260504191955 | 71 | 312 | 4.0 | 6.0 | 0.00 | 0.00 | 0.00 | 31 | 1036.4 |
| 20260504191503 | 69 | 204 | 4.0 | 5.0 | 0.00 | 0.00 | 0.00 | 32 | 1007.9 |
| 20260504191452 | 69 | 204 | 3.0 | 5.0 | 0.00 | 0.00 | 0.00 | 32 | 1036.6 |
| 20260504191002 | 70 | 187 | 3.0 | 4.0 | 0.00 | 0.00 | 0.00 | 30 | 1007.7 |
| 20260504190947 | 70 | 187 | 2.0 | 3.0 | 0.00 | 0.00 | 0.00 | 30 | 1036.4 |
| 20260504190443 | 71 | 37 | 7.0 | 8.0 | 0.00 | 0.00 | 0.00 | 29 | 1036.5 |
| 20260504190002 | 71 | 162 | 3.0 | 6.0 | 0.00 | 0.00 | 0.00 | 30 | 1007.9 |
| 20260504185940 | 71 | 353 | 3.0 | 5.0 | 0.00 | 0.00 | 0.00 | 29 | 1036.6 |
| 20260504185503 | 70 | 185 | 2.0 | 4.0 | 0.00 | 0.00 | 0.00 | 29 | 1007.9 |
| 20260504185438 | 70 | 229 | 2.0 | 2.0 | 0.00 | 0.00 | 0.00 | 30 | 1036.8 |
| 20260504185003 | 70 | 192 | 5.0 | 7.0 | 0.00 | 0.00 | 0.00 | 29 | 1008.0 |
| 20260504184933 | 70 | 187 | 3.0 | 3.0 | 0.00 | 0.00 | 0.00 | 29 | 1036.6 |
| 20260504184429 | 71 | 76 | 4.0 | 7.0 | 0.00 | 0.00 | 0.00 | 29 | 1036.5 |
| 20260504184002 | 70 | 173 | 4.0 | 6.0 | 0.00 | 0.00 | 0.00 | 30 | 1007.8 |
| 20260504183925 | 70 | 349 | 3.0 | 3.0 | 0.00 | 0.00 | 0.00 | 32 | 1036.8 |
| 20260504183503 | 69 | 185 | 2.0 | 3.0 | 0.00 | 0.00 | 0.00 | 31 | 1008.3 |
| 20260504183423 | 70 | 327 | 5.0 | 6.0 | 0.00 | 0.00 | 0.00 | 30 | 1037.0 |
| 20260504183002 | 70 | 227 | 1.0 | 3.0 | 0.00 | 0.00 | 0.00 | 29 | 1008.5 |
| 20260504182921 | 70 | 163 | 5.0 | 8.0 | 0.00 | 0.00 | 0.00 | 29 | 1037.0 |
| 20260504182503 | 70 | 197 | 3.0 | 4.0 | 0.00 | 0.00 | 0.00 | 29 | 1008.3 |
| 20260504182417 | 70 | 286 | 3.0 | 5.0 | 0.00 | 0.00 | 0.00 | 29 | 1037.1 |
| 20260504181914 | 70 | 215 | 3.0 | 3.0 | 0.00 | 0.00 | 0.00 | 30 | 1036.9 |
| 20260504181503 | 69 | 222 | 3.0 | 4.0 | 0.00 | 0.00 | 0.00 | 30 | 1008.4 |
| 20260504181412 | 70 | 161 | 4.0 | 7.0 | 0.00 | 0.00 | 0.00 | 29 | 1037.0 |
| 20260504181002 | 69 | 201 | 3.0 | 4.0 | 0.00 | 0.00 | 0.00 | 30 | 1008.3 |
| 20260504180910 | 68 | 293 | 3.0 | 7.0 | 0.00 | 0.00 | 0.00 | 31 | 1036.9 |
| 20260504180503 | 69 | 190 | 8.0 | 10.0 | 0.00 | 0.00 | 0.00 | 29 | 1008.3 |
| 20260504180409 | 69 | 182 | 3.0 | 7.0 | 0.00 | 0.00 | 0.00 | 30 | 1037.3 |
| 20260504180002 | 70 | 179 | 5.0 | 6.0 | 0.00 | 0.00 | 0.00 | 30 | 1008.5 |
| 20260504175907 | 69 | 221 | 4.0 | 5.0 | 0.00 | 0.00 | 0.00 | 29 | 1037.2 |
| 20260504175503 | 69 | 239 | 4.0 | 5.0 | 0.00 | 0.00 | 0.00 | 30 | 1008.4 |
| 20260504175403 | 69 | 161 | 1.0 | 2.0 | 0.00 | 0.00 | 0.00 | 30 | 1036.9 |
| 20260504175002 | 68 | 226 | 5.0 | 6.0 | 0.00 | 0.00 | 0.00 | 30 | 1008.6 |
| 20260504174901 | 68 | 224 | 5.0 | 6.0 | 0.00 | 0.00 | 0.00 | 30 | 1037.1 |
| 20260504174502 | 67 | 206 | 2.0 | 3.0 | 0.00 | 0.00 | 0.00 | 32 | 1008.5 |
| 20260504174358 | 68 | 52 | 2.0 | 2.0 | 0.00 | 0.00 | 0.00 | 31 | 1037.2 |
| 20260504174003 | 68 | 187 | 3.0 | 4.0 | 0.00 | 0.00 | 0.00 | 31 | 1008.6 |
| 20260504173855 | 68 | 247 | 5.0 | 6.0 | 0.00 | 0.00 | 0.00 | 29 | 1037.3 |
| 20260504173503 | 68 | 182 | 2.0 | 4.0 | 0.00 | 0.00 | 0.00 | 31 | 1008.5 |
| 20260504173352 | 68 | 219 | 5.0 | 6.0 | 0.00 | 0.00 | 0.00 | 31 | 1037.5 |
| 20260504173002 | 68 | 224 | 3.0 | 4.0 | 0.00 | 0.00 | 0.00 | 33 | 1008.8 |
| 20260504172849 | 68 | 256 | 3.0 | 3.0 | 0.00 | 0.00 | 0.00 | 33 | 1037.4 |
| 20260504172503 | 68 | 245 | 6.0 | 7.0 | 0.00 | 0.00 | 0.00 | 32 | 1008.9 |
| 20260504172345 | 68 | 150 | 3.0 | 5.0 | 0.00 | 0.00 | 0.00 | 32 | 1037.3 |
| 20260504172002 | 68 | 215 | 3.0 | 4.0 | 0.00 | 0.00 | 0.00 | 33 | 1008.9 |
| 20260504171841 | 67 | 90 | 3.0 | 3.0 | 0.00 | 0.00 | 0.00 | 33 | 1037.6 |
| 20260504171502 | 67 | 241 | 3.0 | 4.0 | 0.00 | 0.00 | 0.00 | 32 | 1009.0 |
| 20260504171339 | 67 | 312 | 3.0 | 3.0 | 0.00 | 0.00 | 0.00 | 32 | 1037.5 |
| 20260504171003 | 67 | 213 | 4.0 | 5.0 | 0.00 | 0.00 | 0.00 | 33 | 1008.8 |
| 20260504170836 | 67 | 314 | 5.0 | 6.0 | 0.00 | 0.00 | 0.00 | 32 | 1037.5 |
| 20260504170502 | 66 | 229 | 4.0 | 6.0 | 0.00 | 0.00 | 0.00 | 33 | 1008.7 |
| 20260504170332 | 66 | 215 | 5.0 | 7.0 | 0.00 | 0.00 | 0.00 | 33 | 1037.7 |
| 20260504160251 | 65 | 179 | 1.0 | 2.0 | 0.00 | 0.00 | 0.00 | 35 | 1038.2 |
| 20260504151002 | 64 | 229 | 3.0 | 4.0 | 0.00 | 0.00 | 0.00 | 38 | 1010.2 |
| 20260504150716 | 64 | 298 | 3.0 | 3.0 | 0.00 | 0.00 | 0.00 | 39 | 1039.1 |
| 20260504150502 | 63 | 227 | 1.0 | 2.0 | 0.00 | 0.00 | 0.00 | 38 | 1010.2 |
| 20260504150213 | 64 | 213 | 2.0 | 2.0 | 0.00 | 0.00 | 0.00 | 37 | 1038.9 |
| 20260504141142 | 62 | 218 | 5.0 | 6.0 | 0.00 | 0.00 | 0.00 | 39 | 1039.1 |
| 20260504141003 | 62 | 216 | 3.0 | 4.0 | 0.00 | 0.00 | 0.00 | 39 | 1010.4 |
| 20260504140639 | 61 | 219 | 3.0 | 3.0 | 0.00 | 0.00 | 0.00 | 41 | 1039.1 |
| 20260504140502 | 61 | 178 | 5.0 | 6.0 | 0.00 | 0.00 | 0.00 | 39 | 1010.5 |
| 20260504140134 | 61 | 209 | 4.0 | 5.0 | 0.00 | 0.00 | 0.00 | 40 | 1039.2 |
| 20260504130603 | 58 | 207 | 4.0 | 6.0 | 0.00 | 0.00 | 0.00 | 44 | 1039.8 |
| 20260504130503 | 58 | 163 | 2.0 | 3.0 | 0.00 | 0.00 | 0.00 | 45 | 1011.0 |
| 20260504110503 | 48 | 160 | 3.0 | 4.0 | 0.00 | 0.00 | 0.00 | 56 | 1011.0 |
| 20260504110451 | 48 | 160 | 3.0 | 3.0 | 0.00 | 0.00 | 0.00 | 56 | 1039.8 |
| 20260504100502 | 38 | 139 | 0.0 | 0.0 | 0.00 | 0.00 | 0.00 | 76 | 1011.3 |
| 20260504100413 | 38 | 137 | 0.0 | 0.0 | 0.00 | 0.00 | 0.00 | 76 | 1040.2 |
| 20260504082002 | 41 | 58 | 0.0 | 0.0 | 0.00 | 0.00 | 0.00 | 67 | 1010.8 |
| 20260504081806 | 41 | 58 | 0.0 | 0.0 | 0.00 | 0.00 | 0.00 | 67 | 1039.7 |
| 20260504081502 | 42 | 44 | 1.0 | 2.0 | 0.00 | 0.00 | 0.00 | 67 | 1010.8 |
| 20260504081302 | 42 | 71 | 0.0 | 0.0 | 0.00 | 0.00 | 0.00 | 66 | 1039.8 |
| 20260504080759 | 42 | 72 | 0.0 | 0.0 | 0.00 | 0.00 | 0.00 | 66 | 1039.5 |
| 20260504080503 | 43 | 72 | 0.0 | 0.0 | 0.00 | 0.00 | 0.00 | 66 | 1010.7 |
| 20260504080255 | 43 | 72 | 0.0 | 0.0 | 0.00 | 0.00 | 0.00 | 65 | 1039.8 |
| 20260504070223 | 44 | 191 | 0.0 | 0.0 | 0.00 | 0.00 | 0.00 | 60 | 1039.3 |
| 20260504060143 | 43 | 188 | 0.0 | 0.0 | 0.00 | 0.00 | 0.00 | 65 | 1039.5 |
| 20260504050612 | 42 | 159 | 0.0 | 0.0 | 0.00 | 0.00 | 0.00 | 64 | 1039.8 |
| 20260504050109 | 42 | 164 | 0.0 | 0.0 | 0.00 | 0.00 | 0.00 | 61 | 1039.7 |
| 20260504050003 | 42 | 165 | 0.0 | 0.0 | 0.00 | 0.00 | 0.00 | 61 | 1010.8 |
| 20260504045606 | 42 | 164 | 0.0 | 0.0 | 0.00 | 0.00 | 0.00 | 62 | 1039.5 |
| 20260504045502 | 42 | 164 | 0.0 | 0.0 | 0.00 | 0.00 | 0.00 | 62 | 1010.8 |
| 20260504045100 | 42 | 149 | 0.0 | 0.0 | 0.00 | 0.00 | 0.00 | 62 | 1039.6 |
| 20260504045002 | 42 | 136 | 0.0 | 0.0 | 0.00 | 0.00 | 0.00 | 63 | 1010.8 |
| 20260504044559 | 41 | 188 | 0.0 | 0.0 | 0.00 | 0.00 | 0.00 | 61 | 1039.7 |
| 20260504044503 | 41 | 188 | 0.0 | 0.0 | 0.00 | 0.00 | 0.00 | 63 | 1011.0 |
| 20260504044055 | 41 | 188 | 0.0 | 0.0 | 0.00 | 0.00 | 0.00 | 65 | 1039.7 |
| 20260504044002 | 41 | 188 | 0.0 | 0.0 | 0.00 | 0.00 | 0.00 | 64 | 1010.9 |
| 20260504043553 | 41 | 188 | 0.0 | 0.0 | 0.00 | 0.00 | 0.00 | 65 | 1039.7 |
| 20260504043502 | 41 | 188 | 0.0 | 0.0 | 0.00 | 0.00 | 0.00 | 64 | 1010.9 |
| 20260504043049 | 41 | 188 | 0.0 | 0.0 | 0.00 | 0.00 | 0.00 | 65 | 1039.8 |
| 20260504043003 | 40 | 188 | 0.0 | 0.0 | 0.00 | 0.00 | 0.00 | 67 | 1010.8 |
| 20260504042546 | 40 | 188 | 0.0 | 0.0 | 0.00 | 0.00 | 0.00 | 66 | 1039.7 |
| 20260504042502 | 40 | 188 | 0.0 | 0.0 | 0.00 | 0.00 | 0.00 | 63 | 1011.0 |
| 20260504042043 | 40 | 188 | 0.0 | 0.0 | 0.00 | 0.00 | 0.00 | 66 | 1039.8 |
| 20260504042002 | 40 | 188 | 0.0 | 0.0 | 0.00 | 0.00 | 0.00 | 66 | 1011.0 |
| 20260504041539 | 39 | 188 | 0.0 | 0.0 | 0.00 | 0.00 | 0.00 | 66 | 1039.6 |
| 20260504041503 | 39 | 188 | 0.0 | 0.0 | 0.00 | 0.00 | 0.00 | 66 | 1010.8 |
| 20260504041035 | 39 | 188 | 0.0 | 0.0 | 0.00 | 0.00 | 0.00 | 68 | 1039.5 |
| 20260504041003 | 39 | 188 | 0.0 | 0.0 | 0.00 | 0.00 | 0.00 | 68 | 1010.7 |
| 20260504040533 | 39 | 188 | 0.0 | 1.0 | 0.00 | 0.00 | 0.00 | 67 | 1039.5 |
| 20260504040502 | 39 | 188 | 1.0 | 2.0 | 0.00 | 0.00 | 0.00 | 67 | 1010.7 |
| 20260504040030 | 38 | 188 | 0.0 | 0.0 | 0.00 | 0.00 | 0.00 | 69 | 1039.7 |
| 20260504040003 | 38 | 188 | 0.0 | 0.0 | 0.00 | 0.00 | 0.00 | 69 | 1010.9 |
| 20260504035527 | 38 | 188 | 0.0 | 0.0 | 0.00 | 0.00 | 0.00 | 69 | 1039.4 |
| 20260504035502 | 38 | 188 | 0.0 | 0.0 | 0.00 | 0.00 | 0.00 | 69 | 1010.6 |
| 20260504035023 | 37 | 188 | 0.0 | 0.0 | 0.00 | 0.00 | 0.00 | 70 | 1039.6 |
| 20260504035003 | 37 | 188 | 0.0 | 0.0 | 0.00 | 0.00 | 0.00 | 70 | 1010.8 |
| 20260504034521 | 37 | 188 | 0.0 | 0.0 | 0.00 | 0.00 | 0.00 | 69 | 1039.3 |
| 20260504034502 | 37 | 188 | 0.0 | 0.0 | 0.00 | 0.00 | 0.00 | 69 | 1010.5 |
| 20260504034017 | 37 | 188 | 0.0 | 0.0 | 0.00 | 0.00 | 0.00 | 69 | 1039.1 |
| 20260504033515 | 38 | 188 | 0.0 | 0.0 | 0.00 | 0.00 | 0.00 | 66 | 1039.1 |
| 20260504033503 | 38 | 188 | 0.0 | 0.0 | 0.00 | 0.00 | 0.00 | 66 | 1010.3 |
| 20260504033013 | 38 | 188 | 0.0 | 0.0 | 0.00 | 0.00 | 0.00 | 65 | 1039.3 |
| 20260504033002 | 38 | 188 | 0.0 | 0.0 | 0.00 | 0.00 | 0.00 | 65 | 1010.5 |
| 20260504032509 | 38 | 188 | 0.0 | 1.0 | 0.00 | 0.00 | 0.00 | 66 | 1039.2 |
| 20260504032503 | 38 | 188 | 1.0 | 2.0 | 0.00 | 0.00 | 0.00 | 66 | 1010.4 |
| 20260504032006 | 37 | 188 | 0.0 | 0.0 | 0.00 | 0.00 | 0.00 | 69 | 1038.9 |
| 20260504032002 | 37 | 188 | 0.0 | 0.0 | 0.00 | 0.00 | 0.00 | 69 | 1010.1 |
| 20260504031503 | 37 | 188 | 0.0 | 0.0 | 0.00 | 0.00 | 0.00 | 68 | 1039.1 |
| 20260504030959 | 37 | 188 | 0.0 | 0.0 | 0.00 | 0.00 | 0.00 | 70 | 1039.3 |
| 20260504030503 | 37 | 188 | 0.0 | 0.0 | 0.00 | 0.00 | 0.00 | 71 | 1010.1 |
| 20260504030457 | 37 | 188 | 0.0 | 0.0 | 0.00 | 0.00 | 0.00 | 71 | 1038.9 |
| 20260504030003 | 37 | 188 | 0.0 | 0.0 | 0.00 | 0.00 | 0.00 | 72 | 1010.4 |
| 20260504025952 | 37 | 188 | 0.0 | 0.0 | 0.00 | 0.00 | 0.00 | 72 | 1039.2 |
| 20260504025502 | 36 | 188 | 0.0 | 0.0 | 0.00 | 0.00 | 0.00 | 72 | 1010.3 |
| 20260504025450 | 36 | 188 | 0.0 | 0.0 | 0.00 | 0.00 | 0.00 | 72 | 1039.1 |
| 20260504025002 | 36 | 188 | 1.0 | 2.0 | 0.00 | 0.00 | 0.00 | 73 | 1010.4 |
| 20260504024946 | 36 | 188 | 0.0 | 1.0 | 0.00 | 0.00 | 0.00 | 73 | 1039.2 |
| 20260504024443 | 36 | 188 | 0.0 | 0.0 | 0.00 | 0.00 | 0.00 | 74 | 1038.9 |
| 20260504024002 | 36 | 188 | 0.0 | 0.0 | 0.00 | 0.00 | 0.00 | 75 | 1010.2 |
| 20260504023940 | 36 | 188 | 0.0 | 0.0 | 0.00 | 0.00 | 0.00 | 75 | 1038.9 |
| 20260504023503 | 36 | 188 | 0.0 | 0.0 | 0.00 | 0.00 | 0.00 | 75 | 1010.0 |
| 20260504023437 | 36 | 188 | 0.0 | 1.0 | 0.00 | 0.00 | 0.00 | 74 | 1038.8 |
| 20260504023002 | 36 | 188 | 0.0 | 0.0 | 0.00 | 0.00 | 0.00 | 74 | 1010.2 |
| 20260504022932 | 36 | 188 | 0.0 | 0.0 | 0.00 | 0.00 | 0.00 | 74 | 1038.7 |
| 20260504022502 | 36 | 188 | 0.0 | 0.0 | 0.00 | 0.00 | 0.00 | 75 | 1010.0 |
| 20260504022429 | 36 | 188 | 0.0 | 0.0 | 0.00 | 0.00 | 0.00 | 75 | 1038.9 |
| 20260504022003 | 36 | 188 | 0.0 | 0.0 | 0.00 | 0.00 | 0.00 | 75 | 1009.9 |
| 20260504021926 | 36 | 188 | 0.0 | 0.0 | 0.00 | 0.00 | 0.00 | 75 | 1038.8 |
| 20260504021502 | 36 | 188 | 1.0 | 2.0 | 0.00 | 0.00 | 0.00 | 74 | 1010.2 |
| 20260504021423 | 36 | 188 | 0.0 | 0.0 | 0.00 | 0.00 | 0.00 | 74 | 1039.0 |
| 20260504021003 | 36 | 188 | 0.0 | 0.0 | 0.00 | 0.00 | 0.00 | 74 | 1009.9 |
| 20260504020920 | 36 | 188 | 0.0 | 0.0 | 0.00 | 0.00 | 0.00 | 74 | 1038.8 |
| 20260504020503 | 36 | 188 | 0.0 | 0.0 | 0.00 | 0.00 | 0.00 | 74 | 1009.8 |
| 20260504020417 | 36 | 188 | 0.0 | 0.0 | 0.00 | 0.00 | 0.00 | 73 | 1038.7 |
| 20260504015914 | 36 | 188 | 0.0 | 0.0 | 0.00 | 0.00 | 0.00 | 73 | 1038.9 |
| 20260504015502 | 37 | 188 | 0.0 | 0.0 | 0.00 | 0.00 | 0.00 | 72 | 1010.0 |
| 20260504015409 | 37 | 188 | 0.0 | 1.0 | 0.00 | 0.00 | 0.00 | 73 | 1038.5 |
| 20260504015002 | 37 | 188 | 1.0 | 2.0 | 0.00 | 0.00 | 0.00 | 72 | 1009.9 |
| 20260504014906 | 37 | 188 | 0.0 | 0.0 | 0.00 | 0.00 | 0.00 | 72 | 1038.8 |
| 20260504014503 | 37 | 188 | 0.0 | 0.0 | 0.00 | 0.00 | 0.00 | 72 | 1010.0 |
| 20260504014401 | 37 | 188 | 0.0 | 0.0 | 0.00 | 0.00 | 0.00 | 71 | 1038.4 |
| 20260504014003 | 37 | 188 | 0.0 | 0.0 | 0.00 | 0.00 | 0.00 | 71 | 1009.8 |
| 20260504013859 | 37 | 188 | 0.0 | 0.0 | 0.00 | 0.00 | 0.00 | 71 | 1038.5 |
| 20260504013502 | 37 | 188 | 0.0 | 0.0 | 0.00 | 0.00 | 0.00 | 71 | 1009.7 |
| 20260504013357 | 37 | 188 | 0.0 | 0.0 | 0.00 | 0.00 | 0.00 | 70 | 1038.5 |
| 20260504013002 | 37 | 188 | 0.0 | 0.0 | 0.00 | 0.00 | 0.00 | 70 | 1009.8 |
| 20260504012853 | 37 | 188 | 0.0 | 0.0 | 0.00 | 0.00 | 0.00 | 70 | 1038.5 |
| 20260504012503 | 37 | 188 | 0.0 | 0.0 | 0.00 | 0.00 | 0.00 | 69 | 1010.0 |
| 20260504012351 | 37 | 188 | 0.0 | 0.0 | 0.00 | 0.00 | 0.00 | 69 | 1038.5 |
| 20260504012003 | 38 | 188 | 0.0 | 0.0 | 0.00 | 0.00 | 0.00 | 68 | 1009.8 |
| 20260504011848 | 38 | 188 | 0.0 | 0.0 | 0.00 | 0.00 | 0.00 | 68 | 1038.4 |
| 20260504011503 | 38 | 188 | 0.0 | 0.0 | 0.00 | 0.00 | 0.00 | 68 | 1009.8 |
| 20260504011345 | 38 | 188 | 0.0 | 0.0 | 0.00 | 0.00 | 0.00 | 67 | 1038.5 |
| 20260504011003 | 38 | 188 | 0.0 | 0.0 | 0.00 | 0.00 | 0.00 | 67 | 1009.9 |
| 20260504010841 | 38 | 188 | 0.0 | 0.0 | 0.00 | 0.00 | 0.00 | 67 | 1038.5 |
| 20260504010503 | 39 | 188 | 0.0 | 0.0 | 0.00 | 0.00 | 0.00 | 65 | 1009.7 |
| 20260504010336 | 39 | 188 | 0.0 | 0.0 | 0.00 | 0.00 | 0.00 | 64 | 1038.4 |
| 20260504010002 | 39 | 188 | 0.0 | 0.0 | 0.00 | 0.00 | 0.00 | 64 | 1009.6 |
| 20260504005833 | 39 | 188 | 0.0 | 0.0 | 0.00 | 0.00 | 0.00 | 64 | 1038.1 |
| 20260504005330 | 39 | 188 | 0.0 | 0.0 | 0.00 | 0.00 | 0.00 | 62 | 1038.3 |
| 20260504005002 | 40 | 188 | 0.0 | 0.0 | 0.00 | 0.00 | 0.00 | 62 | 1009.5 |
| 20260504004828 | 40 | 188 | 0.0 | 0.0 | 0.00 | 0.00 | 0.00 | 62 | 1038.1 |
| 20260504004503 | 40 | 188 | 0.0 | 0.0 | 0.00 | 0.00 | 0.00 | 61 | 1009.3 |
| 20260504004325 | 41 | 188 | 0.0 | 0.0 | 0.00 | 0.00 | 0.00 | 61 | 1037.9 |
| 20260504004002 | 41 | 188 | 0.0 | 0.0 | 0.00 | 0.00 | 0.00 | 60 | 1009.5 |
| 20260504003821 | 41 | 188 | 0.0 | 0.0 | 0.00 | 0.00 | 0.00 | 61 | 1038.0 |
| 20260504003502 | 41 | 188 | 0.0 | 0.0 | 0.00 | 0.00 | 0.00 | 59 | 1009.4 |
| 20260504003319 | 41 | 188 | 0.0 | 0.0 | 0.00 | 0.00 | 0.00 | 60 | 1038.0 |
| 20260504003003 | 42 | 188 | 0.0 | 0.0 | 0.00 | 0.00 | 0.00 | 58 | 1009.2 |
| 20260504002815 | 42 | 188 | 0.0 | 0.0 | 0.00 | 0.00 | 0.00 | 58 | 1038.1 |
| 20260504002502 | 42 | 188 | 0.0 | 0.0 | 0.00 | 0.00 | 0.00 | 58 | 1009.3 |
| 20260504002312 | 43 | 188 | 0.0 | 0.0 | 0.00 | 0.00 | 0.00 | 59 | 1038.0 |
| 20260504002002 | 43 | 188 | 1.0 | 2.0 | 0.00 | 0.00 | 0.00 | 55 | 1009.2 |
| 20260504001810 | 43 | 176 | 0.0 | 0.0 | 0.00 | 0.00 | 0.00 | 54 | 1038.0 |
| 20260504001502 | 43 | 176 | 0.0 | 0.0 | 0.00 | 0.00 | 0.00 | 56 | 1009.1 |
| 20260504001307 | 43 | 176 | 0.0 | 0.0 | 0.00 | 0.00 | 0.00 | 54 | 1037.7 |
| 20260504001003 | 44 | 176 | 0.0 | 0.0 | 0.00 | 0.00 | 0.00 | 54 | 1009.1 |
| 20260504000804 | 44 | 176 | 0.0 | 0.0 | 0.00 | 0.00 | 0.00 | 53 | 1037.7 |
| 20260504000503 | 44 | 177 | 2.0 | 2.0 | 0.00 | 0.00 | 0.00 | 53 | 1009.0 |
| 20260504000301 | 44 | 161 | 0.0 | 0.0 | 0.00 | 0.00 | 0.00 | 53 | 1038.0 |
| 20260504000003 | 45 | 161 | 0.0 | 0.0 | 0.00 | 0.00 | 0.00 | 52 | 1009.0 |
| 20260503235758 | 45 | 161 | 0.0 | 0.0 | 0.00 | 0.00 | 0.00 | 52 | 1037.7 |
| 20260503235256 | 46 | 192 | 0.0 | 0.0 | 0.00 | 0.00 | 0.00 | 51 | 1037.8 |
| 20260503234753 | 46 | 179 | 0.0 | 0.0 | 0.00 | 0.00 | 0.00 | 50 | 1037.6 |
| 20260503234502 | 46 | 182 | 2.0 | 3.0 | 0.00 | 0.00 | 0.00 | 49 | 1008.8 |
| 20260503234251 | 46 | 130 | 0.0 | 1.0 | 0.00 | 0.00 | 0.00 | 50 | 1037.6 |
| 20260503234003 | 47 | 145 | 0.0 | 0.0 | 0.00 | 0.00 | 0.00 | 49 | 1009.0 |
| 20260503233748 | 47 | 103 | 1.0 | 1.0 | 0.00 | 0.00 | 0.00 | 48 | 1037.6 |
| 20260503233502 | 46 | 55 | 2.0 | 4.0 | 0.00 | 0.00 | 0.00 | 47 | 1009.0 |
| 20260503233244 | 47 | 197 | 0.0 | 1.0 | 0.00 | 0.00 | 0.00 | 48 | 1037.6 |
| 20260503233003 | 47 | 206 | 1.0 | 2.0 | 0.00 | 0.00 | 0.00 | 48 | 1008.8 |
| 20260503232741 | 47 | 198 | 1.0 | 1.0 | 0.00 | 0.00 | 0.00 | 51 | 1037.6 |
| 20260503232238 | 48 | 261 | 1.0 | 1.0 | 0.00 | 0.00 | 0.00 | 45 | 1037.6 |
| 20260503232002 | 48 | 188 | 1.0 | 2.0 | 0.00 | 0.00 | 0.00 | 48 | 1008.8 |
| 20260503231736 | 48 | 199 | 0.0 | 1.0 | 0.00 | 0.00 | 0.00 | 46 | 1037.3 |
| 20260503231503 | 48 | 196 | 0.0 | 0.0 | 0.00 | 0.00 | 0.00 | 46 | 1008.7 |
| 20260503231233 | 48 | 205 | 1.0 | 1.0 | 0.00 | 0.00 | 0.00 | 49 | 1037.5 |
| 20260503231002 | 48 | 210 | 2.0 | 3.0 | 0.00 | 0.00 | 0.00 | 46 | 1008.7 |
| 20260503230728 | 48 | 218 | 0.0 | 0.0 | 0.00 | 0.00 | 0.00 | 46 | 1037.2 |
| 20260503230226 | 49 | 207 | 0.0 | 1.0 | 0.00 | 0.00 | 0.00 | 45 | 1037.2 |
| 20260503230002 | 49 | 215 | 3.0 | 4.0 | 0.00 | 0.00 | 0.00 | 44 | 1008.5 |
| 20260503225724 | 49 | 302 | 2.0 | 3.0 | 0.00 | 0.00 | 0.00 | 42 | 1037.4 |
| 20260503225224 | 49 | 231 | 2.0 | 2.0 | 0.00 | 0.00 | 0.00 | 43 | 1037.2 |
| 20260503225002 | 49 | 305 | 3.0 | 4.0 | 0.00 | 0.00 | 0.00 | 42 | 1008.3 |
| 20260503224721 | 49 | 328 | 1.0 | 2.0 | 0.00 | 0.00 | 0.00 | 42 | 1037.1 |
| 20260503224502 | 50 | 240 | 2.0 | 2.0 | 0.00 | 0.00 | 0.00 | 42 | 1008.6 |
| 20260503224219 | 50 | 34 | 3.0 | 5.0 | 0.00 | 0.00 | 0.00 | 40 | 1037.1 |
| 20260503224003 | 50 | 146 | 1.0 | 2.0 | 0.00 | 0.00 | 0.00 | 41 | 1008.4 |
| 20260503223716 | 49 | 74 | 0.0 | 1.0 | 0.00 | 0.00 | 0.00 | 43 | 1037.1 |
| 20260503223502 | 49 | 244 | 1.0 | 2.0 | 0.00 | 0.00 | 0.00 | 44 | 1008.4 |
| 20260503223213 | 49 | 25 | 1.0 | 2.0 | 0.00 | 0.00 | 0.00 | 42 | 1037.0 |
| 20260503222710 | 49 | 193 | 1.0 | 1.0 | 0.00 | 0.00 | 0.00 | 41 | 1036.9 |
| 20260503222502 | 49 | 218 | 0.0 | 0.0 | 0.00 | 0.00 | 0.00 | 44 | 1008.2 |
| 20260503222208 | 49 | 204 | 1.0 | 2.0 | 0.00 | 0.00 | 0.00 | 43 | 1037.0 |
| 20260503222002 | 49 | 180 | 3.0 | 3.0 | 0.00 | 0.00 | 0.00 | 44 | 1008.0 |
| 20260503221706 | 50 | 214 | 2.0 | 2.0 | 0.00 | 0.00 | 0.00 | 41 | 1036.9 |
| 20260503221503 | 50 | 196 | 2.0 | 4.0 | 0.00 | 0.00 | 0.00 | 40 | 1008.1 |
| 20260503221203 | 49 | 42 | 4.0 | 7.0 | 0.00 | 0.00 | 0.00 | 41 | 1036.7 |
| 20260503221002 | 49 | 200 | 3.0 | 4.0 | 0.00 | 0.00 | 0.00 | 41 | 1008.1 |
| 20260503220659 | 49 | 214 | 3.0 | 3.0 | 0.00 | 0.00 | 0.00 | 42 | 1036.9 |
| 20260503220503 | 50 | 355 | 2.0 | 3.0 | 0.00 | 0.00 | 0.00 | 39 | 1008.2 |
| 20260503220156 | 50 | 267 | 3.0 | 5.0 | 0.00 | 0.00 | 0.00 | 40 | 1036.8 |
| 20260503220002 | 49 | 194 | 2.0 | 3.0 | 0.00 | 0.00 | 0.00 | 42 | 1008.1 |
| 20260503215653 | 49 | 189 | 2.0 | 2.0 | 0.00 | 0.00 | 0.00 | 43 | 1036.7 |
| 20260503215503 | 49 | 86 | 2.0 | 5.0 | 0.00 | 0.00 | 0.00 | 42 | 1008.2 |
| 20260503215149 | 49 | 190 | 2.0 | 2.0 | 0.00 | 0.00 | 0.00 | 43 | 1036.8 |
| 20260503215002 | 49 | 241 | 2.0 | 3.0 | 0.00 | 0.00 | 0.00 | 42 | 1008.1 |
| 20260503214648 | 49 | 55 | 1.0 | 2.0 | 0.00 | 0.00 | 0.00 | 42 | 1036.6 |
| 20260503214502 | 50 | 191 | 4.0 | 5.0 | 0.00 | 0.00 | 0.00 | 40 | 1008.1 |
| 20260503214143 | 50 | 149 | 0.0 | 1.0 | 0.00 | 0.00 | 0.00 | 39 | 1036.5 |
| 20260503213638 | 50 | 202 | 2.0 | 3.0 | 0.00 | 0.00 | 0.00 | 39 | 1036.6 |
| 20260503213503 | 50 | 207 | 5.0 | 6.0 | 0.00 | 0.00 | 0.00 | 39 | 1008.0 |
| 20260503213134 | 50 | 243 | 3.0 | 3.0 | 0.00 | 0.00 | 0.00 | 41 | 1036.7 |
| 20260503213002 | 50 | 241 | 2.0 | 3.0 | 0.00 | 0.00 | 0.00 | 41 | 1007.8 |
| 20260503212631 | 50 | 292 | 3.0 | 3.0 | 0.00 | 0.00 | 0.00 | 42 | 1036.5 |
| 20260503212502 | 50 | 219 | 2.0 | 3.0 | 0.00 | 0.00 | 0.00 | 40 | 1007.8 |
| 20260503212129 | 50 | 47 | 4.0 | 6.0 | 0.00 | 0.00 | 0.00 | 39 | 1036.3 |
| 20260503212002 | 50 | 158 | 2.0 | 2.0 | 0.00 | 0.00 | 0.00 | 40 | 1007.8 |
| 20260503211627 | 50 | 133 | 3.0 | 3.0 | 0.00 | 0.00 | 0.00 | 39 | 1036.3 |
| 20260503211503 | 50 | 223 | 5.0 | 7.0 | 0.00 | 0.00 | 0.00 | 41 | 1007.8 |
| 20260503211121 | 51 | 267 | 3.0 | 6.0 | 0.00 | 0.00 | 0.00 | 39 | 1036.5 |
| 20260503211002 | 51 | 195 | 2.0 | 4.0 | 0.00 | 0.00 | 0.00 | 40 | 1007.9 |
| 20260503210618 | 50 | 325 | 2.0 | 3.0 | 0.00 | 0.00 | 0.00 | 40 | 1036.4 |
| 20260503210503 | 51 | 277 | 3.0 | 4.0 | 0.00 | 0.00 | 0.00 | 39 | 1007.8 |
| 20260503210115 | 50 | 252 | 7.0 | 8.0 | 0.00 | 0.00 | 0.00 | 40 | 1036.5 |
| 20260503205611 | 50 | 215 | 3.0 | 5.0 | 0.00 | 0.00 | 0.00 | 42 | 1036.1 |
| 20260503205502 | 50 | 217 | 2.0 | 3.0 | 0.00 | 0.00 | 0.00 | 42 | 1007.6 |
| 20260503205107 | 50 | 182 | 1.0 | 1.0 | 0.00 | 0.00 | 0.00 | 43 | 1036.0 |